Regional Weather Roundup
Issued by NWS Mt. Holly, NJ

Home | Current Version | Previous Version | Text Only | Print | Product List | Glossary On
Versions: 1 2 3 4 5 6 7 8 9 10 11 12 13 14 15 16 17 18 19 20 21 22 23 24 25 26 27 28 29 30 31 32 33 34 35 36 37 38 39 40 41 42 43 44 45 46 47 48 49 50
000
ASUS41 KPHI 301212
RWRPHI

REGIONAL WEATHER ROUNDUP
NATIONAL WEATHER SERVICE MOUNT HOLLY NJ
800 AM EDT THU JUL 30 2015

NOTE:  "FAIR" INDICATES FEW OR NO CLOUDS BELOW 12,000 FEET WITH NO
SIGNIFICANT WEATHER AND/OR OBSTRUCTIONS TO VISIBILITY.

 * = STATION DOES NOT REPORT PRECIPITATION (E.G. RAIN, SNOW, ETC.)
        OR FOG.

NJZ015>026-301300-
SOUTHERN NEW JERSEY

CITY           SKY/WX    TMP DP  RH WIND       PRES   REMARKS
POMONA         PTSUNNY   79  73  82 SW9       29.94S
6HR MIN TEMP:  76; 6HR MAX TEMP:  79;

RIO GRANDE*    CLOUDY    79  72  78 S10       29.96S
MILLVILLE      PTSUNNY   79  74  84 VRB5      29.94S
WRIGHTSTOWN    PTSUNNY   76  74  96 SW8       29.91S
MOUNT HOLLY    MOSUNNY   78  74  87 CALM      29.92F
TRENTON        CLOUDY    78  73  84 SW8       29.92S
6HR MIN TEMP:  75; 6HR MAX TEMP:  78; 6HR PCP: TRACE;


$$
NJZ001>014-301300-
NORTHERN NEW JERSEY

CITY           SKY/WX    TMP DP  RH WIND       PRES   REMARKS
SUSSEX         CLOUDY    75  71  87 CALM      29.91S
ANDOVER*         N/A     77  74  90 SW3       29.92S
MORRISTOWN     CLOUDY    79  75  89 SW9       29.92S HAZE
NEWARK         CLOUDY    80  73  79 SW10      29.91S
TETERBORO      PTSUNNY   79  72  79 S7        29.90S
CALDWELL       CLOUDY    78  72  81 SW5       29.91S
SOMERVILLE     CLOUDY    77  72  84 S3        29.90S
ALLAIRE*       MOSUNNY   77  70  78 SW8       29.93F
TOMS RIVER*      N/A     77  73  88 SW8       29.94S

$$
PAZ043-044-047-054-055-060>062-066>071-301300-
EASTERN PENNSYLVANIA

CITY           SKY/WX    TMP DP  RH WIND       PRES   REMARKS
PHILADELPHIA   PTSUNNY   80  73  79 S12       29.92F
6HR MIN TEMP:  78; 6HR MAX TEMP:  81;

NORTH PHILA    PTSUNNY   80  71  74 SW7       29.93S
BLUE BELL      CLOUDY    77  73  88 CALM      29.92S
DOYLESTOWN     CLOUDY    75  73  93 S5        29.92F
QUAKERTOWN*    CLOUDY    77  73  88 SW3       29.93F
POTTSTOWN      CLOUDY    77  74  90 S5        29.93F
LANCASTER      MOSUNNY   78  73  84 SW5       29.91F
COATESVILLE    CLOUDY    77  77 100 SW3       29.94F
READING        CLOUDY    79  73  82 S5        29.90F
6HR MIN TEMP:  76; 6HR MAX TEMP:  79;

ALLENTOWN      CLOUDY    79  73  82 SW7       29.91S
6HR MIN TEMP:  74; 6HR MAX TEMP:  79;

MOUNT POCONO     N/A    N/A N/A N/A MISG      29.97S
HAZLETON       CLOUDY    73  72  94 CALM      29.97F FOG
WILKES BARRE   CLOUDY    78  71  79 SW7       29.90F HAZE

$$
DEZALL-MDZ008-012-015-019-020-301300-
DELAWARE AND EASTERN MARYLAND

CITY           SKY/WX    TMP DP  RH WIND       PRES   REMARKS
WILMINGTON     MOSUNNY   78  73  84 S9        29.93S
6HR MIN TEMP:  76; 6HR MAX TEMP:  78;

DOVER          MOSUNNY   77  77 100 S8        29.92S
GEORGETOWN     PTSUNNY   78  73  84 S9        29.95F
6HR MIN TEMP:  74; 6HR MAX TEMP:  78;

EASTON         MOSUNNY   81  77  89 SW9       29.97S
ABERDEEN       PTSUNNY   81  73  78 SW12      29.93S
PATUXENT       PTSUNNY   77  71  82 SW14      29.94S
OCEAN CITY     SUNNY     80  73  79 SW8       29.96S
WALLOPS ISLAND PTSUNNY   80  75  84 S10       29.96S
CAMBRIDGE      MOSUNNY   79  72  78 SW6       29.94S
SALISBURY      SUNNY     77  74  90 S8        29.95S

$$
PAZ001-021-NYZ056-072-MDZ011-DCZ001-301300-
OTHER NEARBY LOCATIONS

CITY           SKY/WX    TMP DP  RH WIND       PRES   REMARKS
HARRISBURG     CLOUDY    78  71  79 CALM      29.90S
STATE COLLEGE  HVY RAIN  72  70  94 CALM      29.94R VSB 1
WILLIAMSPORT   PTSUNNY   75  70  84 W3        29.87F
BINGHAMTON     PTSUNNY   72  70  93 S7        29.90F FOG
NEW YORK CITY  PTSUNNY   80  71  74 MISG      29.94S
BALTIMORE      PTSUNNY   78  73  84 S7        29.91F
WASHINGTON DC  PTSUNNY   81  73  76 S8        29.92F

$$


USA.gov is the U.S. government's official web portal to all federal, state and local government web resources and services.